{"data":{"norad_id":65403,"epoch":"2026-09-19T13:43:32.455488Z","epoch_age_seconds":94475,"freshness":"FRESH","line1":"1 65403U 25135BV  26262.57190342  .00004145  00000+0  32666-3 0  9992","line2":"2 65403  97.7637  18.7307 0012121 337.4461  22.6229 15.01275852 62793","mean_motion":15.01275852,"eccentricity":0.0012121,"inclination_deg":97.7637,"raan_deg":18.7307,"arg_perigee_deg":337.4461,"mean_anomaly_deg":22.6229,"bstar":0.00032666,"rev_number":6279,"period_min":95.918414865705,"perigee_km":554.54768131322,"apogee_km":571.37429105132,"semimajor_km":6941.0979861823,"source":"CELESTRAK","updated_at":"2026-09-20T09:00:34.878391Z"}}